Regional Weather Roundup
Issued by NWS

Home | Current Version | Previous Version | Graphics & Text | Print | Product List | Glossary On
Versions: 1 2 3 4 5 6 7 8 9 10 11 12 13 14 15 16 17 18 19 20 21 22 23 24 25 26 27 28 29 30 31 32 33 34 35 36 37 38 39 40 41 42 43 44 45 46 47 48 49
000
ASUS45 KBOU 291707
RWRCO

WEATHER ROUNDUP FOR COLORADO
NATIONAL WEATHER SERVICE DENVER/BOULDER CO
1000 AM MST THU JAN 29 2015

NOTE: "FAIR" INDICATES FEW OR NO CLOUDS BELOW 12000 FEET WITH NO
SIGNIFICANT WEATHER AND/OR OBSTRUCTIONS TO VISIBILITY.

COZ001>005-013-030-031-291800-
...NORTHWEST COLORADO...

CITY           SKY/WX    TMP DP  RH WIND       PRES   REMARKS
CRAIG          MOSUNNY   30  29  96 CALM      30.43R
HAYDEN         MOSUNNY   34  25  69 E7        30.42R WCI  28
MEEKER         SUNNY     26  22  84 CALM      30.41S
MOUNT WERNER   NOT AVBL
STEAMBOAT SPGS MOSUNNY   30  25  81 CALM      30.42S
WALDEN         PTSUNNY   32  28  86 W3        30.43S
$$

COZ006>008-011-291800-
...WEST CENTRAL VALLEYS...

CITY           SKY/WX    TMP DP  RH WIND       PRES   REMARKS
GRAND JUNCTION SUNNY     44  29  55 SE10      30.37S
MONTROSE       MOSUNNY   38  30  73 CALM      30.40S
EAGLE          MOSUNNY   34  28  80 CALM      30.45S
RIFLE          SUNNY     39  27  62 CALM      30.40S
DELTA          MOSUNNY   37  29  71 S3        30.40S
NUCLA          MOSUNNY   36  28  75 CALM      30.41S
$$

COZ017>023-064>068-291800-
...SOUTHWEST COLORADO...

CITY           SKY/WX    TMP DP  RH WIND       PRES   REMARKS
DURANGO        CLOUDY    36  29  75 NE3       30.39R
CORTEZ         MOSUNNY   41  30  65 CALM      30.36R
PAGOSA SPRINGS CLOUDY    38  27  64 CALM      30.42S
TELLURIDE      CLOUDY    35  16  45 CALM      30.40S
WOLF CREEK PAS NOT AVBL
$$

COZ009-010-012-014-032>034-037-058>063-291800-
...CENTRAL COLORADO...

CITY           SKY/WX    TMP DP  RH WIND       PRES   REMARKS
ASPEN          MOSUNNY   35  18  49 CALM      30.39F
BUENA VISTA    CLOUDY    31  20  63 CALM      30.50R
COPPER MTN     SUNNY     30  16  55 SE7       30.46R WCI  23
BERTHOUD PASS  FAIR      14   9  79 SE3       30.48R
COTTONWOOD PAS CLOUDY    30  21  69 CALM      30.49R
GUNNISON       MOSUNNY   10   9  92 CALM      30.49S
KREMMLING      SUNNY     30  23  74 CALM      30.46S
LEADVILLE      MOSUNNY   21  14  74 S6        30.45R WCI  13
MONARCH PASS   CLOUDY    19  18  93 MISG      30.56S
SALIDA         CLOUDY    34  23  65 N3        30.58R
SUNLIGHT       SUNNY     28  23  80 E3          N/A
WILKERSON PASS FOG       21  19  93 CALM      30.51R VSB<1/4
$$

COZ069>075-291800-
...SAN LUIS VALLEY/SANGRE DE CRISTO MOUNTAINS...

CITY           SKY/WX    TMP DP  RH WIND       PRES   REMARKS
ALAMOSA        PTSUNNY   37  24  59 N3        30.44R
LA VETA PASS   NOT AVBL
SAGUACHE       MOSUNNY   34  23  64 NW6       30.45R WCI  29
$$

COZ035-036-038>040-291800-
...NORTHERN COLORADO FRONT RANGE...

CITY           SKY/WX    TMP DP  RH WIND       PRES   REMARKS
DENVER INTL AP CLOUDY    40  26  57 NE6       30.51R
DMNS CITY PARK   N/A     40  26  56 E3        30.52S
AURORA         CLOUDY    37  24  60 NE1       30.52R
FRONT RANGE AP PTSUNNY   41  27  56 NE6       30.52R
ERIE MUNI ARPT CLOUDY    40  27  58 CALM      30.52R
BOULDER MUN AP CLOUDY    39  27  60 E3        30.51S
CENTENNIAL     CLOUDY    37  26  64 E5        30.51R
BROOMFIELD     CLOUDY    37  27  65 CALM      30.52R
FORT COLLINS   CLOUDY    39  28  65 S8        30.52R
LONGMONT       CLOUDY    43  29  56 S6        30.53S
$$

COZ041-046-047-076>085-087-088-291800-
...PIKES PEAK/PALMER DIVIDE AND SOUTHERN FOOTHILLS...

CITY           SKY/WX    TMP DP  RH WIND       PRES   REMARKS
COLO. SPRINGS  CLOUDY    39  27  62 S8        30.52R
A. F. ACADEMY  CLOUDY    37  25  64 N1        30.50R
ELLICOTT       CLOUDY   N/A N/A N/A NE5       30.52R
FALCON         NOT AVBL
FORT CARSON    CLOUDY    40  28  62 S12       30.51R
LIMON          CLOUDY    38  26  62 N13       30.52R
MONUMENT HILL  CLOUDY    32  27  80 NE7       30.50R WCI  26
TRINIDAD       CLOUDY    40  27  59 CALM      30.53R
$$

COZ042>045-048>051-090-091-291800-
...NORTHEAST COLORADO...

CITY           SKY/WX    TMP DP  RH WIND       PRES   REMARKS
GREELEY ARPT   CLOUDY    41  27  56 CALM      30.50S
AKRON          CLOUDY    41  21  44 NW15      30.50R
BURLINGTON     MOSUNNY   42  21  43 N17       30.49S
WRAY           SUNNY     40  26  57 N5        30.52R
STERLING       PTSUNNY   46  23  39 N17       30.49R
HOLYOKE        SUNNY     37  28  70 NW13      30.52R
FORT MORGAN    CLOUDY    40  19  42 NW9       30.53R
$$

COZ086-089-092>099-291800-
...SOUTHEAST COLORADO...

CITY           SKY/WX    TMP DP  RH WIND       PRES   REMARKS
PUEBLO         CLOUDY    45  24  43 CALM      30.52R
LA JUNTA       CLOUDY    48  27  44 N9        30.53R
LAMAR          CLOUDY    48  25  40 N12       30.51R
SPRINGFIELD      N/A     44  27  51 NW15      30.51R
$$


USA.gov is the U.S. government's official web portal to all federal, state and local government web resources and services.